FENGYUN 3C

Satellite information

Favourite Embed

Satellite Type and Status

PAYLOADIN ORBIT

Key statistics

Satellite FENGYUN 3C at a glance.

Uptime

4244

Days in orbit

Revolutions

≈ 14.2

Per day

Orbit

SSO

Sun Synchronous Orbit

Inclination

98.5

Latest

Satellite identification and parameters

Extended collection of information and parameters for FENGYUN 3C.

Object identification

Identified? True

Debris? False

Object name: FENGYUN 3C

International designator: 2013-052A

Object number (NORAD): 39260

Object ID (CCSDS): 39260

Country: PEOPLES REPUBLIC OF CHINA (PRC)

Current information (Y/N): Y

RCS size: LARGE

Orbital parameters

Period: 101.722 minutes

Inclination: 98.4533 deg

SMA: 7218.353 km

Apoapsis: 851.633 km

Periapsis: 828.803 km

RAAN: 114.7003 deg

Eccentricy: 0.0015814

Argument of periapsis: 114.1413 deg

Mean anomaly: 246.1417 deg

Mean motion: 14.15616495 rev/day

Mean motion (dot): 0.00000184 rev/day2

B* drag term: 0.00011467 1/REarth

Two-line elements (TLE)

Creation date: May 6, 2025, 3:54 a.m.

Reference frame: TEME

Reference center: EARTH

Epoch: May 5, 2025, 10:39 p.m. UTC

TLE line 0: 0 FENGYUN 3C

TLE line 1: 1 39260U 13052A 25125.94407708 .00000184 00000-0 11467-3 0 9990

TLE line 2: 2 39260 98.4533 114.7003 0015814 114.1413 246.1417 14.15616495600940

Live tracking on map

Real-time ground track for satellite FENGYUN 3C.

In-orbit conjunctions

There are no conjunctions computed for FENGYUN 3C, at the moment. Check back to stay up to date, as we update our databases every day.

Go to all conjunctions

Associated space launch

FENGYUN 3C was lifted into orbit during the mission ‘Long March 4C | Fengyun-3C’, on board a Long March 4C space rocket.

The launch took place on Sept. 23, 2013, 3:07 a.m. from Launch Complex 9.

For more information about the launch, click the button.

Launch to space Long March 4C | Fengyun-3C
Long March 4C | Fengyun-3C

Agency: N/A

Status: Launch Successful

Launch date: Sept. 23, 2013, 3:07 a.m. UTC

Rocket: Long March 4C

Launch pad: Launch Complex 9

Location: Taiyuan Satellite Launch Center, People's Republic of China

...

Latest news about this satellite

There are no fresh news available about this satellite. Check back as we update our databases every day.


Newsletter sign-up

Weekly statistics, charts and insights to help you stay on top of the space industry.